TimeCDT,TemperatureF,Dew PointF,Humidity,Sea Level PressureIn,VisibilityMPH,Wind Direction,Wind SpeedMPH,Gust SpeedMPH,PrecipitationIn,Events,Conditions,WindDirDegrees,DateUTC
12:00 AM,60.8,57.2,88,29.78,1.0,Calm,Calm,-,N/A,,Mist,0,2012-10-02 05:00:00
12:06 AM,60.8,57.2,88,29.78,2.0,Calm,Calm,-,N/A,,Scattered Clouds,0,2012-10-02 05:06:00
12:16 AM,59.0,57.2,94,29.78,3.0,Calm,Calm,-,N/A,,Partly Cloudy,0,2012-10-02 05:16:00
12:20 AM,60.8,57.2,88,29.78,1.8,Calm,Calm,-,N/A,,Clear,0,2012-10-02 05:20:00
12:30 AM,60.8,57.2,88,29.78,3.0,Calm,Calm,-,N/A,,Clear,0,2012-10-02 05:30:00
12:53 AM,59.0,57.0,93,29.78,1.2,Calm,Calm,-,N/A,,Clear,0,2012-10-02 05:53:00
1:01 AM,59.0,57.2,94,29.78,3.0,Calm,Calm,-,N/A,,Clear,0,2012-10-02 06:01:00
1:09 AM,57.2,57.2,100,29.78,1.5,Calm,Calm,-,N/A,,Clear,0,2012-10-02 06:09:00
1:11 AM,57.2,57.2,100,29.78,1.0,Calm,Calm,-,N/A,,Mist,0,2012-10-02 06:11:00
1:20 AM,57.2,55.4,94,29.79,0.5,Calm,Calm,-,N/A,Fog,Fog,0,2012-10-02 06:20:00
1:32 AM,57.2,55.4,94,29.79,1.2,Calm,Calm,-,N/A,,Partly Cloudy,0,2012-10-02 06:32:00
1:39 AM,57.2,55.4,94,29.79,3.0,Calm,Calm,-,N/A,,Partly Cloudy,0,2012-10-02 06:39:00
1:53 AM,57.0,55.0,93,29.80,2.5,Calm,Calm,-,N/A,,Clear,0,2012-10-02 06:53:00
2:01 AM,57.2,55.4,94,29.80,4.0,Calm,Calm,-,N/A,,Clear,0,2012-10-02 07:01:00
2:53 AM,57.0,55.9,96,29.80,6.0,Calm,Calm,-,N/A,,Clear,0,2012-10-02 07:53:00
3:53 AM,57.0,55.0,93,29.81,7.0,Calm,Calm,-,N/A,,Clear,0,2012-10-02 08:53:00
4:53 AM,55.9,54.0,93,29.82,9.0,Calm,Calm,-,N/A,,Clear,0,2012-10-02 09:53:00
5:53 AM,55.9,54.0,93,29.83,2.0,Calm,Calm,-,N/A,,Clear,0,2012-10-02 10:53:00
6:02 AM,55.4,53.6,94,29.83,4.0,Calm,Calm,-,N/A,,Clear,0,2012-10-02 11:02:00
6:05 AM,55.4,53.6,94,29.83,1.5,Calm,Calm,-,N/A,,Clear,0,2012-10-02 11:05:00
6:20 AM,55.4,53.6,94,29.84,3.0,Calm,Calm,-,N/A,,Clear,0,2012-10-02 11:20:00
6:36 AM,55.4,53.6,94,29.85,2.5,Calm,Calm,-,N/A,,Clear,0,2012-10-02 11:36:00
6:45 AM,55.4,53.6,94,29.85,3.0,Calm,Calm,-,N/A,,Clear,0,2012-10-02 11:45:00
6:53 AM,54.0,53.1,97,29.85,4.0,Calm,Calm,-,N/A,,Clear,0,2012-10-02 11:53:00
7:53 AM,57.0,55.0,93,29.87,6.0,Calm,Calm,-,N/A,,Clear,0,2012-10-02 12:53:00
8:53 AM,64.0,59.0,84,29.89,10.0,Calm,Calm,-,N/A,,Clear,0,2012-10-02 13:53:00
9:53 AM,69.1,57.9,68,29.91,10.0,NNE,3.5,-,N/A,,Clear,30,2012-10-02 14:53:00
10:53 AM,73.0,55.9,55,29.92,10.0,North,3.5,-,N/A,,Clear,10,2012-10-02 15:53:00
11:53 AM,75.0,57.9,55,29.91,10.0,East,4.6,-,N/A,,Clear,100,2012-10-02 16:53:00
12:53 PM,75.9,55.9,50,29.91,10.0,East,4.6,-,N/A,,Partly Cloudy,90,2012-10-02 17:53:00
1:53 PM,78.1,52.0,40,29.89,10.0,North,5.8,-,N/A,,Partly Cloudy,350,2012-10-02 18:53:00
2:53 PM,77.0,53.1,43,29.88,10.0,Variable,3.5,-,N/A,,Scattered Clouds,0,2012-10-02 19:53:00
3:53 PM,78.1,54.0,43,29.88,10.0,East,4.6,-,N/A,,Partly Cloudy,100,2012-10-02 20:53:00
4:53 PM,78.1,55.9,46,29.88,10.0,East,3.5,-,N/A,,Scattered Clouds,90,2012-10-02 21:53:00
5:53 PM,73.0,61.0,66,29.89,10.0,Calm,Calm,-,N/A,,Overcast,0,2012-10-02 22:53:00
6:53 PM,69.8,64.4,83,29.90,10.0,Calm,Calm,-,N/A,,Overcast,0,2012-10-02 23:53:00
7:53 PM,64.9,62.1,90,29.91,10.0,Calm,Calm,-,N/A,,Clear,0,2012-10-03 00:53:00
8:53 PM,66.0,63.0,90,29.94,10.0,Calm,Calm,-,N/A,,Overcast,0,2012-10-03 01:53:00
9:53 PM,66.0,63.0,90,29.96,7.0,West,3.5,-,0.01,Rain,Light Rain,260,2012-10-03 02:53:00
10:42 PM,62.6,60.8,94,29.97,1.8,Calm,Calm,-,0.03,,Clear,0,2012-10-03 03:42:00
10:53 PM,63.0,61.0,93,29.97,3.0,Calm,Calm,-,0.03,,Mostly Cloudy,0,2012-10-03 03:53:00
11:42 PM,62.6,60.8,94,29.97,1.8,Calm,Calm,-,N/A,,Scattered Clouds,0,2012-10-03 04:42:00
11:49 PM,62.6,60.8,94,29.97,0.5,Calm,Calm,-,N/A,Fog,Fog,0,2012-10-03 04:49:00
11:53 PM,62.1,60.1,93,29.97,0.2,Calm,Calm,-,N/A,Fog,Fog,0,2012-10-03 04:53:00